GW4040 Weather Reports


time (UTC)temp
C
wind
direction
speed
KPH
gust
KPH
rain 1hr
cm
rain 24hr
cm
rain mn
cm
humidity
%
barometer
mb
20260505053503 15 150 0.0 3.2 0.00 0.00 0.00 62 1009.4
20260505053004 15 146 0.0 3.2 0.00 0.00 0.00 63 1009.3
20260505052502 15 148 1.6 3.2 0.00 0.00 0.00 63 1009.4
20260505052003 15 153 1.6 3.2 0.00 0.00 0.00 65 1009.3
20260505051516 15 152 1.6 4.8 0.00 0.00 0.00 66 1009.2
20260505051003 15 150 1.6 4.8 0.00 0.00 0.00 66 1009.3
20260505050504 14 154 1.6 3.2 0.00 0.00 0.00 67 1009.2
20260505041511 15 127 0.0 3.2 0.00 0.00 0.00 61 1009.0
20260505041003 16 160 0.0 3.2 0.00 0.00 0.00 59 1009.1
20260505040503 16 122 1.6 3.2 0.00 0.00 0.00 58 1009.2
20260505040005 16 154 1.6 3.2 0.00 0.00 0.00 58 1009.2
20260505035503 16 139 0.0 3.2 0.00 0.00 0.00 58 1009.2
20260505035003 16 131 1.6 4.8 0.00 0.00 0.00 58 1009.0
20260505034507 16 155 1.6 4.8 0.00 0.00 0.00 57 1009.0
20260505034003 16 143 1.6 3.2 0.00 0.00 0.00 57 1008.9
20260505033506 16 142 0.0 1.6 0.00 0.00 0.00 57 1008.9
20260505033008 16 146 0.0 1.6 0.00 0.00 0.00 57 1009.0
20260505032503 16 146 0.0 1.6 0.00 0.00 0.00 56 1008.9
20260505032003 16 146 0.0 4.8 0.00 0.00 0.00 56 1008.9
20260505031508 16 146 1.6 6.4 0.00 0.00 0.00 55 1009.0
20260505031004 16 157 3.2 8.0 0.00 0.00 0.00 55 1009.0
20260505030503 17 173 3.2 9.7 0.00 0.00 0.00 55 1009.0
20260505030012 16 197 4.8 9.7 0.00 0.00 0.00 55 1008.9
20260505025507 16 154 3.2 8.0 0.00 0.00 0.00 55 1008.8
20260505025004 16 191 4.8 8.0 0.00 0.00 0.00 56 1009.0
20260505024513 16 162 4.8 9.7 0.00 0.00 0.00 55 1009.0
20260505024004 16 162 4.8 9.7 0.00 0.00 0.00 55 1009.0
20260505023503 16 137 6.4 9.7 0.00 0.00 0.00 55 1009.0
20260505023019 16 172 3.2 6.4 0.00 0.00 0.00 55 1009.0
20260505022503 16 149 3.2 4.8 0.00 0.00 0.00 54 1009.0
20260505022004 17 108 1.6 3.2 0.00 0.00 0.00 54 1009.1
20260505021515 17 94 1.6 3.2 0.00 0.00 0.00 53 1009.0
20260505021006 17 134 0.0 3.2 0.00 0.00 0.00 53 1009.1
20260505020503 17 146 1.6 4.8 0.00 0.00 0.00 52 1009.1
20260505020012 17 100 1.6 6.4 0.00 0.00 0.00 52 1009.0
20260505015503 17 148 1.6 6.4 0.00 0.00 0.00 52 1009.0
20260505015003 17 152 1.6 6.4 0.00 0.00 0.00 52 1008.8
20260505014514 17 146 3.2 6.4 0.00 0.00 0.00 52 1009.0
20260505014006 17 147 1.6 6.4 0.00 0.00 0.00 52 1009.2
20260505013505 17 159 3.2 9.7 0.00 0.00 0.00 52 1009.2
20260505013011 17 164 1.6 9.7 0.00 0.00 0.00 52 1009.2
20260505012504 17 155 4.8 9.7 0.00 0.00 0.00 52 1009.1
20260505012004 17 139 4.8 9.7 0.00 0.00 0.00 51 1009.0
20260505011518 17 149 4.8 9.7 0.00 0.00 0.00 51 1009.0
20260505011005 17 146 3.2 8.0 0.00 0.00 0.00 51 1008.9
20260505010510 17 133 3.2 8.0 0.00 0.00 0.00 51 1008.8
20260505010013 17 152 3.2 6.4 0.00 0.00 0.00 51 1008.8
20260505005507 17 150 3.2 6.4 0.00 0.00 0.00 51 1008.7
20260505005006 18 131 1.6 6.4 0.00 0.00 0.00 51 1008.6
20260505004520 18 147 3.2 6.4 0.00 0.00 0.00 50 1008.5
20260505004008 18 137 1.6 4.8 0.00 0.00 0.00 50 1008.5
20260505003511 18 139 3.2 8.0 0.00 0.00 0.00 50 1008.5
20260505003012 18 160 3.2 8.0 0.00 0.00 0.00 49 1008.5
20260505002505 18 154 3.2 8.0 0.00 0.00 0.00 48 1008.5
20260505002007 18 161 3.2 9.7 0.00 0.00 0.00 48 1008.5
20260505001517 18 158 4.8 11.3 0.00 0.00 0.00 47 1008.5
20260505001004 19 139 3.2 17.7 0.00 0.00 0.00 47 1008.5
20260505000504 19 221 4.8 19.3 0.00 0.00 0.00 46 1008.2
20260505000023 20 198 6.4 19.3 0.00 0.00 0.00 46 1008.2
20260504235504 20 109 8.0 20.9 0.00 0.00 0.00 46 1008.2
20260504235004 20 174 8.0 20.9 0.00 0.00 0.00 45 1008.1
20260504234513 20 139 9.7 19.3 0.00 0.00 0.00 45 1008.1
20260504234003 21 143 9.7 20.9 0.00 0.00 0.00 44 1008.0
20260504233503 21 155 9.7 20.9 0.00 0.00 0.00 43 1008.1
20260504233005 21 183 9.7 19.3 0.00 0.00 0.00 42 1008.1
20260504232502 21 149 6.4 14.5 0.00 0.00 0.00 41 1007.9
20260504232004 22 172 4.8 14.5 0.00 0.00 0.00 41 1007.9
20260504231510 22 160 6.4 17.7 0.00 0.00 0.00 40 1007.9
20260504231003 22 249 4.8 17.7 0.00 0.00 0.00 39 1008.0
20260504230504 22 205 6.4 19.3 0.00 0.00 0.00 40 1008.0
20260504230010 22 192 3.2 19.3 0.00 0.00 0.00 39 1008.1
20260504225506 22 205 8.0 16.1 0.00 0.00 0.00 39 1008.2
20260504225005 22 132 6.4 17.7 0.00 0.00 0.00 40 1008.0
20260504224503 22 188 8.0 24.1 0.00 0.00 0.00 39 1008.0
20260504224003 22 202 9.7 24.1 0.00 0.00 0.00 38 1008.1
20260504223503 23 262 4.8 19.3 0.00 0.00 0.00 40 1008.1
20260504223009 23 189 9.7 19.3 0.00 0.00 0.00 38 1008.1
20260504222503 22 210 6.4 27.4 0.00 0.00 0.00 38 1008.3
20260504222005 23 231 11.3 27.4 0.00 0.00 0.00 37 1008.3
20260504221512 23 184 11.3 24.1 0.00 0.00 0.00 38 1008.1
20260504221003 23 262 9.7 19.3 0.00 0.00 0.00 38 1008.0
20260504220505 23 195 8.0 17.7 0.00 0.00 0.00 39 1008.0
20260504220006 23 176 8.0 17.7 0.00 0.00 0.00 37 1008.1
20260504215505 23 169 8.0 17.7 0.00 0.00 0.00 37 1008.1
20260504215003 23 184 6.4 17.7 0.00 0.00 0.00 40 1008.4
20260504214518 23 189 9.7 17.7 0.00 0.00 0.00 38 1008.2
20260504214010 23 162 8.0 20.9 0.00 0.00 0.00 39 1008.1
20260504213506 23 217 8.0 20.9 0.00 0.00 0.00 39 1008.1
20260504213012 23 146 11.3 20.9 0.00 0.00 0.00 38 1008.2
20260504212503 23 285 11.3 19.3 0.00 0.00 0.00 36 1008.1
20260504212002 23 231 9.7 16.1 0.00 0.00 0.00 37 1008.1
20260504211510 23 270 6.4 24.1 0.00 0.00 0.00 37 1008.1
20260504211003 23 217 8.0 24.1 0.00 0.00 0.00 36 1008.2
20260504210503 23 195 8.0 22.5 0.00 0.00 0.00 37 1008.0
20260504210014 23 200 9.7 22.5 0.00 0.00 0.00 38 1008.1
20260504205506 23 169 8.0 20.9 0.00 0.00 0.00 40 1008.2
20260504205005 23 255 9.7 20.9 0.00 0.00 0.00 38 1008.2
20260504204505 23 210 9.7 20.9 0.00 0.00 0.00 37 1008.2
20260504204003 23 268 9.7 20.9 0.00 0.00 0.00 36 1008.3
20260504203508 23 270 8.0 17.7 0.00 0.00 0.00 39 1008.2
20260504203012 23 321 8.0 16.1 0.00 0.00 0.00 37 1008.3
20260504202505 23 176 8.0 16.1 0.00 0.00 0.00 38 1008.3
20260504202004 22 199 8.0 22.5 0.00 0.00 0.00 39 1008.5
20260504201514 22 294 9.7 22.5 0.00 0.00 0.00 36 1008.6
20260504201004 22 229 11.3 20.9 0.00 0.00 0.00 40 1008.7
20260504200503 22 212 8.0 20.9 0.00 0.00 0.00 38 1008.8
20260504200004 22 184 9.7 20.9 0.00 0.00 0.00 39 1008.8
20260504195502 22 193 4.8 20.9 0.00 0.00 0.00 41 1008.9
20260504195003 22 264 8.0 20.9 0.00 0.00 0.00 38 1009.0
20260504194516 22 183 11.3 19.3 0.00 0.00 0.00 39 1009.1
20260504194003 22 256 8.0 22.5 0.00 0.00 0.00 37 1009.2
20260504193506 22 220 11.3 22.5 0.00 0.00 0.00 38 1009.2
20260504193022 22 245 12.9 22.5 0.00 0.00 0.00 42 1009.3
20260504192506 22 160 8.0 22.5 0.00 0.00 0.00 39 1009.4
20260504192002 22 242 9.7 20.9 0.00 0.00 0.00 40 1009.6
20260504191508 22 173 9.7 20.9 0.00 0.00 0.00 37 1009.6
20260504191005 22 219 8.0 19.3 0.00 0.00 0.00 40 1009.6
20260504190507 22 213 11.3 22.5 0.00 0.00 0.00 39 1009.8
20260504190017 21 180 8.0 22.5 0.00 0.00 0.00 40 1009.8
20260504185512 21 189 11.3 25.7 0.00 0.00 0.00 38 1009.9
20260504185015 21 170 8.0 25.7 0.00 0.00 0.00 37 1010.0
20260504184520 21 271 11.3 24.1 0.00 0.00 0.00 39 1010.0
20260504184004 21 267 8.0 17.7 0.00 0.00 0.00 37 1010.1
20260504183504 21 287 8.0 20.9 0.00 0.00 0.00 40 1010.1
20260504183011 21 178 8.0 20.9 0.00 0.00 0.00 40 1010.2
20260504182503 21 224 9.7 19.3 0.00 0.00 0.00 43 1010.1
20260504182009 21 259 6.4 22.5 0.00 0.00 0.00 41 1010.3
20260504181527 21 259 4.8 24.1 0.00 0.00 0.00 39 1010.3
20260504181005 21 266 9.7 24.1 0.00 0.00 0.00 40 1010.4
20260504180511 21 252 11.3 16.1 0.00 0.00 0.00 37 1010.4
20260504180022 21 276 6.4 16.1 0.00 0.00 0.00 38 1010.4
20260504175503 21 179 8.0 16.1 0.00 0.00 0.00 39 1010.6
20260504175004 21 191 8.0 17.7 0.00 0.00 0.00 39 1010.7
20260504174516 21 189 12.9 19.3 0.00 0.00 0.00 38 1010.7
20260504174007 20 212 8.0 19.3 0.00 0.00 0.00 39 1010.7
20260504173507 21 277 8.0 19.3 0.00 0.00 0.00 45 1010.8
20260504173021 20 268 6.4 20.9 0.00 0.00 0.00 41 1010.9
20260504172507 21 172 9.7 20.9 0.00 0.00 0.00 41 1011.1
20260504172005 20 154 6.4 19.3 0.00 0.00 0.00 41 1011.1
20260504171511 20 240 6.4 19.3 0.00 0.00 0.00 40 1011.2
20260504171003 20 261 11.3 19.3 0.00 0.00 0.00 41 1011.4
20260504170505 20 252 6.4 19.3 0.00 0.00 0.00 40 1011.5
20260504151003 18 249 8.0 19.3 0.00 0.00 0.00 42 1012.5
20260504150506 18 198 6.4 17.7 0.00 0.00 0.00 43 1012.5
20260504141003 15 326 0.0 4.8 0.00 0.00 0.00 53 1013.1
20260504140503 15 230 1.6 4.8 0.00 0.00 0.00 52 1013.0
20260504130506 12 326 1.6 3.2 0.00 0.00 0.00 59 1013.3
20260504110506 2 352 0.0 0.0 0.00 0.00 0.00 89 1013.4
20260504100511 1 352 0.0 1.6 0.00 0.00 0.00 89 1013.7
20260504082003 2 326 0.0 0.0 0.00 0.00 0.00 84 1014.0
20260504081524 2 310 0.0 0.0 0.00 0.00 0.00 84 1014.1
20260504081008 2 310 0.0 0.0 0.00 0.00 0.00 83 1014.1
20260504080509 2 310 0.0 0.0 0.00 0.00 0.00 83 1014.0